User: anonymous   Login
Location: Unspecified
(0.0000°N, 0.0000°E)
Time: 21:03:53
(UTC+00:00)
Language:

LANDSAT 8 - Orbit

View from above orbital plane
View from above orbital plane
View from above satellite
View from above satellite

Ground track
Ground track

The orbit data is extracted from the following two-line orbital elements,

1 39084U 13008A   15186.16224490  .00000199  00000-0  54163-4 0  9997
2 39084 098.2276 255.7757 0001231 093.7514 266.3825 14.57098201127227
Epoch (UTC): 05 July 2015 03:53:37
Eccentricity: 0.0001231
inclination: 98.2276°
perigee height: 701 km
apogee height: 703 km
right ascension of ascending node: 255.7757°
argument of perigee: 93.7514°
revolutions per day: 14.57098201
mean anomaly at epoch: 266.3825°
orbit number at epoch: 12722

The dashed part of the orbit path shows where the satellite is in the earth's shadow,  

DLR